Hourly Data Report for October 10, 2019

All times are specified in Local Standard Time (LST). Add 1 hour to adjust for Daylight Saving Time where and when it is observed.

CORAL HARBOUR A
NUNAVUT
Current Station Operator: NAVCAN

64°11'36.000" N
83°21'34.000" W
62.20 m
2301002
71915
YZS

Download Data

Hourly Data (October 2019)
Hourly Data Report for October 10, 2019
TIME Temp Definition
°C
Dew Point Definition
°C
Rel Hum Definition
%
Wind Dir Definition
10's deg

Wind Spd Definition
km/h
Visibility Definition
km
Stn Press Definition
kPa
Hmdx Definition


Wind Chill Definition


Weather Definition


00:00 0.7 -1.4 86 20 53 24.1 99.42     LegendNANA
01:00 -0.1 -1.4 91 21 62 24.1 99.36   -9 Mostly Cloudy
02:00 0.1 -1.4 90 21 46 19.3 99.24     Snow
03:00 0.1 -1.7 87 21 46 19.3 99.20     Snow
04:00 -0.2 -2.5 84 21 62 19.3 99.15   -9 Snow
05:00 -0.3 -2.5 85 22 55 19.3 99.13   -9 Snow
06:00 -0.9 -2.7 88 22 40 19.3 99.19   -9 Snow
07:00 -1.1 -2.7 89 24 44 19.3 99.26   -9 Snow
08:00 -0.6 -2.2 89 22 36 9.7 99.30   -8 Snow,Blowing Snow
09:00 -0.6 -1.9 91 24 37 24.1 99.35   -8 Snow,Blowing Snow
10:00 -0.3 -2.7 84 24 39 24.1 99.40   -8 Snow,Blowing Snow
11:00 -0.4 -3.7 78 25 53 24.1 99.46   -9 LegendNANA
12:00 -0.9 -3.4 84 25 53 19.3 99.49   -10 Blowing Snow
13:00 -1.2 -4.0 81 26 55 24.1 99.59   -10 Snow,Blowing Snow
14:00 -1.1 -4.6 77 26 57 24.1 99.67   -10 Freezing Drizzle
15:00 -1.3 -3.5 85 26 58 24.1 99.77   -10 Freezing Drizzle,Blowing Snow
16:00 -1.5 -3.3 88 27 50 19.3 99.86   -10 Freezing Drizzle,Snow,Blowing Snow
17:00 -1.6 -3.5 87 27 53 19.3 99.91   -11 Freezing Drizzle,Snow,Blowing Snow
18:00 -1.7 -3.9 85 27 47 24.1 99.98   -10 Blowing Snow
19:00 -1.6 -3.7 86 26 43 24.1 100.10   -10 Snow,Blowing Snow
20:00 -1.7 -3.5 88 26 49 24.1 100.21   -10 Snow,Blowing Snow
21:00 -1.9 -3.5 89 26 40 19.3 100.29   -10 Snow,Blowing Snow
22:00 -2.0 -3.4 91 26 36 16.1 100.34   -10 Snow,Blowing Snow
23:00 -2.0 -3.8 87 26 45 16.1 100.36   -10 Snow,Blowing Snow

Notes on Data Quality.

Legend

  • E = Estimated
  • M = Missing
  • NA = Not Available
Date modified: